Regional Weather Roundup
Issued by NWS

Home | Current Version | Previous Version | Text Only | Print | Product List | Glossary On
Versions: 1 2 3 4 5 6 7 8 9 10 11 12 13 14 15 16 17 18 19 20 21 22 23 24 25 26 27 28 29 30 31 32 33 34 35 36 37 38 39 40 41 42 43 44 45 46 47 48 49 50
000
ASUS44 KFWD 291515
RWRTX
NORTH TEXAS HOURLY WEATHER ROUNDUP
NATIONAL WEATHER SERVICE FORT WORTH TX
1000 AM CDT TUE JUL 29 2014

NOTE: "FAIR" INDICATES FEW OR NO CLOUDS BELOW 12,000 FEET WITH NO
SIGNIFICANT WEATHER AND/OR OBSTRUCTIONS TO VISIBILITY.

TXZ118-119-291600-
DALLAS/FORT WORTH METROPLEX

CITY           SKY/WX    TMP DP  RH WIND       PRES   REMARKS
DFW AIRPORT    CLOUDY    80  61  52 NE6       30.15S
DALLAS LOVE    CLOUDY    80  63  55 E5        30.15S
FTW MEACHAM    CLOUDY    79  63  57 E6        30.15S
DAL-EXECUTIVE  CLOUDY    81  62  52 E6        30.15S
FTW-ALLIANCE   CLOUDY    76  63  64 NE3       30.16S
FTW-NAS-JRB    CLOUDY    80  60  50 NE5       30.20S
FTW-SPINKS     PTSUNNY   79  63  57 CALM      30.17S
ARLINGTON      CLOUDY    80  61  52 NE3       30.16R
GRAND PRAIRIE  SUNNY     79  61  53 NE7       30.16S
ADDISON        PTSUNNY   81  61  50 E5        30.16S
MESQUITE       SUNNY     81  61  50 CALM      30.15S
LANCASTER      CLOUDY    79  61  54 NE3       30.16S
$$

TXZ091>094-102>105-117-120-121-131>134-291600-
NORTH CENTRAL TEXAS

CITY           SKY/WX    TMP DP  RH WIND       PRES   REMARKS
SHRMAN/DENISON CLOUDY    80  61  53 E3        30.18S
GAINESVILLE    CLOUDY    75  65  69 CALM      30.19S
BOWIE          CLOUDY    73  65  74 CALM      30.18F
BRIDGEPORT     CLOUDY    77  60  55 S3        30.20R
DECATUR        CLOUDY    74  63  69 SE3       30.18R
DENTON         LGT RAIN  75  66  73 CALM      30.16F
MCKINNEY       PTSUNNY   80  63  55 E7        30.16S
GREENVILLE     MOSUNNY   81  63  54 E5        30.15F
ROCKWALL       PTSUNNY   82  62  51 E9        30.14S
TERRELL        MOSUNNY   86  63  45 E8        30.15S
WAXAHACHIE     CLOUDY    77  60  56 NE6       30.16F
CLEBURNE       PTSUNNY   79  63  57 E7        30.17S
GRANBURY       LGT RAIN  79  63  57 NE3       30.18S
$$

TXZ083>090-098>101-113>116-127>130-139>142-154-155-291600-
WESTERN NORTH TEXAS

CITY           SKY/WX    TMP DP  RH WIND       PRES   REMARKS
WICHITA FALLS  CLOUDY    77  66  68 S7        30.18R
WF-KICKAPOO    CLOUDY    76  67  73 S6        30.20R
VERNON         CLOUDY    70  61  73 S9        30.22R
ABILENE        MOSUNNY   80  61  52 SE12      30.19S
ABILENE-DYESS  MOSUNNY   80  62  53 SE10      30.18S
BRECKENRIDGE   SUNNY     82  57  43 SE12      30.18S HAZE
GRAHAM         CLOUDY    73  64  74 N3        30.19R
MINERAL WELLS  TSTM      72  64  76 E6        30.17R
STEPHENVILLE   PTSUNNY   79  60  53 E8        30.20S
COMANCHE       SUNNY     81  61  51 SE7       30.19R
BROWNWOOD      SUNNY     82  64  54 E8        30.17S
COLEMAN        SUNNY     80  63  55 SE10      30.18S
BRADY          SUNNY     81  70  69 E6        30.17R
$$

TXZ143>147-156>162-174-175-291600-
CENTRAL TEXAS

CITY           SKY/WX    TMP DP  RH WIND       PRES   REMARKS
WACO           MOSUNNY   82  67  60 E7        30.13S
WACO-TSTC      SUNNY     82  66  57 E8        30.13S
WACO-MCGREGOR  MOSUNNY   81  66  61 E5        30.15S
HILLSBORO      PTSUNNY   78  63  59 NE6       30.15S
CORSICANA      PTSUNNY   83  67  58 NE7       30.14F
MEXIA          PTSUNNY   78  69  73 NE3       30.13R
HEARNE         PTSUNNY  N/A N/A N/A CALM      30.11S
CAMERON        PTSUNNY   81  72  74 E3        30.11S
TEMPLE         MOSUNNY   82  66  57 E7        30.13S
KILLEEN        MOSUNNY   82  72  69 E8        30.14S
KILLEEN-SKYLRK MOSUNNY   81  66  61 E7        30.13F
FORT HOOD      MOSUNNY   85  70  60 E6        30.14S
GATESVILLE     SUNNY     82  66  57 E7        30.16F
HAMILTON       SUNNY     81  64  56 E8        30.18R
LAMPASAS       SUNNY     78  71  77 NE7       30.15R
$$

TXZ095>097-106>112-122>126-135>138-148>153-164>167-291600-
EAST TEXAS

CITY           SKY/WX    TMP DP  RH WIND       PRES   REMARKS
PARIS          MOSUNNY   81  61  50 E8        30.16R
SULPHUR SPRNGS PTSUNNY   78  64  61 E7        30.17S
CLARKSVILLE    MOSUNNY   82  62  50 E8        30.15S
MOUNT PLEASANT PTSUNNY   79  63  57 E7        30.15F
GILMER         SUNNY     81  66  61 NE6       30.16S
MINEOLA        MOSUNNY   81  66  61 E3        30.15F
TYLER          PTSUNNY   83  66  56 E8        30.13S
LONGVIEW       SUNNY     82  67  60 E3        30.13S
MARSHALL       SUNNY     82  69  64 N3        30.15S
ATHENS         MOSUNNY   77  68  73 NE3       30.12S
JACKSONVILLE   PTSUNNY   77  72  83 E5        30.16R
HENDERSON      MOSUNNY   81  70  68 E5        30.14S
NACOGDOCHES    PTSUNNY   79  72  78 SE5       30.13S
LUFKIN         PTSUNNY   82  73  74 E5        30.12R
$$

SUPPLEMENTAL OBSERVATIONS (CENTRAL)

CITY           SKY/WX    TMP DP  RH WIND       PRES   REMARKS
LAKE TEXOMA      N/A     77  63  61 E2          N/A
CADDO GRASSLND   N/A     81  64  57 SE3         N/A
PAT MAYSE LAKE   N/A     79  63  57 NE5         N/A
ATHENS           N/A     79  68  69 E3          N/A
PALESTINE        N/A     79  72  78 E2          N/A
LAKE LIMESTONE   N/A     82  81  94 NE7         N/A  HX  95
MCGREGOR         N/A     84  68  58 NE8         N/A
TEMPLE           N/A     82  72  69 E7          N/A
$$

SUPPLEMENTAL OBSERVATIONS (WEST)

CITY           SKY/WX    TMP DP  RH WIND       PRES   REMARKS
MILLERS CREEK    N/A     79  68  69 SE12        N/A
POSSUM KINGDOM   N/A     77  59  53 E7          N/A
LBJ GRASSLAND    N/A     75  64  69 SE2         N/A
GRANBURY         N/A     79  63  57 E6          N/A
COMANCHE         N/A     81  64  57 SE9         N/A
HAMBY            N/A     82  61  47 E12         N/A
$$

SUPPLEMENTAL OBSERVATIONS (EAST)

CITY           SKY/WX    TMP DP  RH WIND       PRES   REMARKS
CLARKSVILLE      N/A     82  64  54 E6          N/A
TEXARKANA        N/A     81  66  61 E3          N/A
LINDEN           N/A     82  64  54 E2          N/A
CADDO LAKE       N/A     82  66  57 N3          N/A
GILMER           N/A     82  64  54 E3          N/A
HENDERSON        N/A     82  72  69 CALM        N/A
LUFKIN           N/A     81  79  94 MISG        N/A
S SABINE NF      N/A     79  73  83 CALM        N/A
$$

SUPPLEMENTAL OBSERVATIONS ARE A COLLECTION OF AUTOMATED INSTRUMENTS
THAT ARE MAINTAINED BY A VARIETY OF FEDERAL AND STATE AGENCIES.
CERTAIN ELEMENTS...SUCH AS HUMIDITY VALUES AND SUSTAINED WIND
SPEEDS...MAY BE APPROXIMATED.




USA.gov is the U.S. government's official web portal to all federal, state and local government web resources and services.